• In Romania
  • List of Countries
  • For 7 days
  • Water Temperature
  • Satellite Maps
  • Weather Map
  • Weather Widgets
  • user-avatar
    Login

    Hourly Weather Burgas

    Today, 17 December, Sunday

    Time Temperature Precipitation Wind Pressure Humidity
    00:00 +13°C° 0.9 mm 5 mps 755 mmHg 81%
    01:00 +13°C° 0.9 mm 4 mps 755 mmHg 81%
    02:00 +13°C° 0.9 mm 4 mps 755 mmHg 82%
    03:00 +12°C° 2 mm 5 mps 755 mmHg 83%
    04:00 +10°C° 2 mm 5 mps 754 mmHg 84%
    05:00 +10°C° 2 mm 6 mps 754 mmHg 85%
    06:00 +9°C° 2 mm 6 mps 754 mmHg 86%
    07:00 +9°C° 2 mm 6 mps 754 mmHg 86%
    08:00 +8°C° 2 mm 6 mps 754 mmHg 87%
    09:00 +8°C° 2.2 mm 5 mps 755 mmHg 88%
    10:00 +8°C° 2.2 mm 5 mps 755 mmHg 88%
    11:00 +8°C° 2.2 mm 4 mps 755 mmHg 89%
    12:00 +7°C° 2.1 mm 5 mps 755 mmHg 88%
    13:00 +7°C° 2.1 mm 5 mps 755 mmHg 87%
    14:00 +7°C° 2.1 mm 5 mps 755 mmHg 86%
    15:00 +7°C° 0.7 mm 5 mps 755 mmHg 86%
    16:00 +6°C° 0.7 mm 5 mps 755 mmHg 85%
    17:00 +6°C° 0.7 mm 5 mps 756 mmHg 85%
    18:00 +6°C° 0.1 mm 5 mps 756 mmHg 85%
    19:00 +6°C° 0.1 mm 5 mps 757 mmHg 85%
    20:00 +5°C° 0.1 mm 5 mps 758 mmHg 85%
    21:00 +5°C° 0.1 mm 5 mps 758 mmHg 85%
    22:00 +5°C° 0.1 mm 5 mps 759 mmHg 85%
    23:00 +3°C° 0.1 mm 5 mps 759 mmHg 85%

    Tomorrow, 18 December, Monday

    Time Temperature Precipitation Wind Pressure Humidity
    00:00 +3°C° 0 mm 5 mps 760 mmHg 85%
    01:00 +4°C° 0 mm 4 mps 760 mmHg 86%
    02:00 +3°C° 0 mm 4 mps 761 mmHg 86%
    03:00 +3°C° 0 mm 4 mps 761 mmHg 86%
    04:00 +3°C° 0 mm 4 mps 761 mmHg 85%
    05:00 +1°C° 0 mm 4 mps 761 mmHg 85%
    06:00 +1°C° 0 mm 4 mps 762 mmHg 85%
    07:00 +1°C° 0 mm 4 mps 762 mmHg 86%
    08:00 +2°C° 0 mm 3 mps 763 mmHg 86%
    09:00 +3°C° 0 mm 3 mps 763 mmHg 81%
    10:00 +3°C° 0 mm 4 mps 763 mmHg 76%
    11:00 +4°C° 0 mm 4 mps 764 mmHg 71%
    12:00 +5°C° 0 mm 4 mps 763 mmHg 69%
    13:00 +5°C° 0 mm 4 mps 763 mmHg 67%
    14:00 +5°C° 0 mm 4 mps 762 mmHg 66%
    15:00 +5°C° 0.1 mm 4 mps 762 mmHg 68%
    16:00 +4°C° 0.1 mm 4 mps 762 mmHg 71%
    17:00 +4°C° 0.1 mm 4 mps 762 mmHg 73%
    18:00 +4°C° 0.2 mm 4 mps 763 mmHg 74%
    19:00 +3°C° 0.2 mm 4 mps 763 mmHg 75%
    20:00 +2°C° 0.2 mm 5 mps 763 mmHg 76%
    21:00 +2°C° 0.1 mm 5 mps 763 mmHg 77%
    22:00 +2°C° 0.1 mm 5 mps 763 mmHg 78%
    23:00 +1°C° 0.1 mm 5 mps 764 mmHg 79%

    Day after tomorrow, 19 December, Tuesday

    Time Temperature Precipitation Wind Pressure Humidity
    00:00 +1°C° 0.2 mm 5 mps 764 mmHg 80%
    01:00 +1°C° 0.2 mm 6 mps 764 mmHg 80%
    02:00 +1°C° 0.2 mm 6 mps 764 mmHg 81%
    03:00 -1°C° 0.2 mm 6 mps 765 mmHg 81%
    04:00 -1°C° 0.2 mm 6 mps 765 mmHg 81%
    05:00 -1°C° 0.2 mm 6 mps 765 mmHg 81%
    06:00 0°C° 0.1 mm 5 mps 766 mmHg 81%
    07:00 0°C° 0.1 mm 5 mps 766 mmHg 82%
    08:00 0°C° 0.1 mm 5 mps 767 mmHg 82%
    09:00 0°C° 0.2 mm 5 mps 767 mmHg 81%
    10:00 0°C° 0.2 mm 5 mps 768 mmHg 80%
    11:00 0°C° 0.2 mm 5 mps 768 mmHg 78%
    12:00 0°C° 0.1 mm 5 mps 768 mmHg 77%
    13:00 +1°C° 0.1 mm 5 mps 768 mmHg 75%
    14:00 +1°C° 0.1 mm 6 mps 768 mmHg 74%
    15:00 +1°C° 0.1 mm 5 mps 768 mmHg 74%
    16:00 0°C° 0.1 mm 5 mps 768 mmHg 75%
    17:00 0°C° 0.1 mm 5 mps 768 mmHg 75%
    18:00 0°C° 0 mm 5 mps 769 mmHg 76%
    19:00 0°C° 0 mm 5 mps 769 mmHg 77%
    20:00 0°C° 0 mm 5 mps 769 mmHg 77%
    21:00 -1°C° 0.1 mm 5 mps 769 mmHg 79%
    22:00 -1°C° 0.1 mm 5 mps 769 mmHg 81%
    23:00 -1°C° 0.1 mm 5 mps 769 mmHg 84%

    20 December, Wednesday

    Time Temperature Precipitation Wind Pressure Humidity
    00:00 -1°C° 0.2 mm 5 mps 769 mmHg 85%
    01:00 -1°C° 0.2 mm 5 mps 768 mmHg 86%
    02:00 -1°C° 0.2 mm 5 mps 768 mmHg 87%
    03:00 -1°C° 0.1 mm 5 mps 768 mmHg 88%
    04:00 -2°C° 0.1 mm 5 mps 768 mmHg 89%
    05:00 -2°C° 0.1 mm 5 mps 768 mmHg 90%
    06:00 -2°C° 0 mm 5 mps 768 mmHg 90%
    07:00 -2°C° 0 mm 5 mps 768 mmHg 90%
    08:00 -2°C° 0 mm 4 mps 769 mmHg 90%
    09:00 -1°C° 0 mm 4 mps 769 mmHg 84%
    10:00 0°C° 0 mm 5 mps 769 mmHg 79%
    11:00 0°C° 0 mm 5 mps 769 mmHg 74%
    12:00 +1°C° 0 mm 5 mps 769 mmHg 72%
    13:00 +1°C° 0 mm 5 mps 769 mmHg 69%
    14:00 +2°C° 0 mm 5 mps 769 mmHg 67%
    15:00 +1°C° 0 mm 5 mps 769 mmHg 70%
    16:00 0°C° 0 mm 4 mps 769 mmHg 74%
    17:00 -1°C° 0 mm 4 mps 769 mmHg 77%
    18:00 -1°C° 0 mm 4 mps 769 mmHg 78%
    19:00 -1°C° 0 mm 4 mps 769 mmHg 79%
    20:00 -2°C° 0 mm 4 mps 770 mmHg 80%
    21:00 -2°C° 0 mm 4 mps 770 mmHg 80%
    22:00 -2°C° 0 mm 4 mps 770 mmHg 80%
    23:00 -2°C° 0 mm 4 mps 770 mmHg 80%

    21 December, Thursday

    Time Temperature Precipitation Wind Pressure Humidity
    00:00 -2°C° 0 mm 4 mps 770 mmHg 79%
    01:00 -2°C° 0 mm 4 mps 770 mmHg 79%
    02:00 -3°C° 0 mm 4 mps 769 mmHg 78%
    03:00 -3°C° 0 mm 4 mps 769 mmHg 78%
    04:00 -3°C° 0 mm 4 mps 769 mmHg 77%
    05:00 -4°C° 0 mm 5 mps 769 mmHg 77%
    06:00 -4°C° 0 mm 5 mps 769 mmHg 76%
    07:00 -4°C° 0 mm 5 mps 769 mmHg 76%
    08:00 -4°C° 0 mm 5 mps 770 mmHg 76%
    09:00 -2°C° 0 mm 5 mps 770 mmHg 72%
    10:00 -1°C° 0 mm 5 mps 770 mmHg 69%
    11:00 -2°C° 0 mm 6 mps 770 mmHg 65%
    12:00 0°C° 0 mm 5 mps 770 mmHg 64%
    13:00 0°C° 0 mm 5 mps 770 mmHg 63%
    14:00 0°C° 0 mm 5 mps 769 mmHg 62%
    15:00 0°C° 0 mm 5 mps 769 mmHg 66%
    16:00 -1°C° 0 mm 5 mps 770 mmHg 70%
    17:00 -2°C° 0 mm 5 mps 770 mmHg 74%
    18:00 -2°C° 0 mm 5 mps 770 mmHg 76%
    19:00 -3°C° 0 mm 4 mps 770 mmHg 79%
    20:00 -3°C° 0 mm 4 mps 771 mmHg 81%
    21:00 -3°C° 0 mm 4 mps 771 mmHg 82%
    22:00 -3°C° 0 mm 4 mps 771 mmHg 83%
    23:00 -2°C° 0 mm 3 mps 771 mmHg 84%

    22 December, Friday

    Time Temperature Precipitation Wind Pressure Humidity
    00:00 -2°C° 0 mm 3 mps 771 mmHg 85%
    01:00 -4°C° 0 mm 3 mps 770 mmHg 86%
    02:00 -4°C° 0 mm 3 mps 770 mmHg 86%
    03:00 -4°C° 0 mm 3 mps 770 mmHg 87%
    04:00 -4°C° 0 mm 3 mps 770 mmHg 88%
    05:00 -4°C° 0 mm 3 mps 769 mmHg 88%
    06:00 -4°C° 0 mm 3 mps 769 mmHg 87%
    07:00 -4°C° 0 mm 3 mps 769 mmHg 86%
    08:00 -4°C° 0 mm 3 mps 769 mmHg 85%
    09:00 -2°C° 0 mm 3 mps 769 mmHg 77%
    10:00 0°C° 0 mm 3 mps 769 mmHg 68%
    11:00 0°C° 0 mm 4 mps 769 mmHg 60%
    12:00 +1°C° 0 mm 4 mps 768 mmHg 57%
    13:00 +1°C° 0 mm 4 mps 767 mmHg 53%
    14:00 +3°C° 0 mm 4 mps 766 mmHg 50%
    15:00 +1°C° 0 mm 4 mps 766 mmHg 55%
    16:00 0°C° 0 mm 4 mps 766 mmHg 59%
    17:00 -1°C° 0 mm 4 mps 765 mmHg 64%
    18:00 -1°C° 0 mm 4 mps 765 mmHg 65%
    19:00 -2°C° 0 mm 4 mps 765 mmHg 66%
    20:00 -2°C° 0 mm 4 mps 765 mmHg 66%
    21:00 -1°C° 0 mm 4 mps 764 mmHg 67%
    22:00 -1°C° 0 mm 5 mps 764 mmHg 68%
    23:00 -1°C° 0 mm 5 mps 764 mmHg 69%
    Show more